Location: Warszawa
(52.2463°N, 21.0173°E)
Time: 09:30:25
(UTC+01:00)

ISS - Visible Passes

Search period start: 23 February 2018 00:00
Search period end: 05 March 2018 00:00
Orbit: 402 x 407 km, 51.6° (Epoch: 23 February)

Date Brightness Start Highest point End Pass type
(mag) Time Alt. Az. Time Alt. Az. Time Alt. Az.
27 Feb -0.9 05:35:04 10° S 05:36:50 14° SE 05:38:37 10° ESE visible
01 Mar -1.7 05:25:42 10° SSW 05:28:24 24° SSE 05:31:06 10° E visible
02 Mar -1.2 04:34:11 10° S 04:36:17 16° SE 04:38:24 10° ESE visible
03 Mar -0.8 03:44:04 10° SE 03:44:14 10° SE 03:44:40 10° SE visible
03 Mar -2.6 05:16:56 10° SW 05:20:00 38° SSE 05:23:06 10° E visible
04 Mar -2.1 04:26:36 21° S 04:27:48 27° SSE 04:30:38 10° E visible
